"Pseudo-MPEC" for P115OfN

Created 2020 Sep 19 22:07:18 UT using Find_Orb

Click here for an explanation of pseudo-MPECs

 
 Astrometry: 
     P115OfN  C2020 09 13v`PJXri(.?9_AB@Astrometry;vj706%)KXXBtFV`C=6Gu.jWq/qF51
     P115OfN  C2020 09 13V*mPFC@7TV=7[OoWIredacted;o4cclicklhere+T9*^39/CforDF51
     P115OfN  C2020 09 13VMjym'explanationS$xD9'9q*c_nUjopy.,lq)6MWZ'J4(nYBvLF51

Station data:
(F51) Pan-STARRS 1, Haleakala  (N20.707235 W156.255910)  US/Hawaii.
   Observers N. Primak, A. Schultz, S. Watters, J. Thiel, T. Goggia. Measurer
   PS1 Science Consortium. 1.8-m Ritchey-Chrétien + CCD.

Orbital elements:  P115OfN
   Perihelion 2020 Dec 28.315960 +/- 93.3 TT =  7:34:58 (JD 2459211.815960)
Epoch 2020 Sep 13.0 TT = JDT 2459105.5   Earth MOID: 0.0009   AutoNEOCP
M 256.35147288 +/- 80               (J2000 ecliptic)
n   0.97491032 +/- 0.483            Peri.  289.00832 +/- 90
a   1.00730178 +/- 0.333            Node   169.83543 +/- 25
e   0.0421439 +/- 0.257             Incl.    1.27605 +/- 29
P   1.01/369.26d           H 31.1   G  0.15   U 12.3  SR
q 0.96485010 +/- 0.386    Q 1.04975345 +/- 19
From 3 observations 2020 Sept. 13 (51.9 min); mean residual 0".03
Residuals in arcseconds: 
200913 F51  .01-  .02+    200913 F51  .03+  .05-    200913 F51  .02-  .03+    

Ephemerides (geocentric):
Date (UTC) HH   RA              Dec         delta   r     elong  mag " sig PA
---- -- -- --  -------------   -----------  ------ ------ -----  --- ---- ---
2020 09 19 22  00 33 26.093   -14 22 29.38  .01011 1.0140 162.9 22.0  48d 177
2020 09 19 23  00 33 32.981   -14 29 23.92  .01009 1.0140 162.8 22.0  48d 177
2020 09 20 00  00 33 39.895   -14 36 19.63  .01008 1.0139 162.7 22.0  49d 177
2020 09 20 01  00 33 46.835   -14 43 16.52  .01006 1.0139 162.6 22.0  49d 177
2020 09 20 02  00 33 53.803   -14 50 14.59  .01005 1.0139 162.5 22.0  49d 177
2020 09 20 03  00 34 00.797   -14 57 13.83  .01003 1.0138 162.4 22.0  49d 177
2020 09 20 04  00 34 07.818   -15 04 14.25  .01002 1.0138 162.3 22.0  49d 177
2020 09 20 05  00 34 14.867   -15 11 15.85  .01000 1.0138 162.2 22.0  49d 177
2020 09 20 06  00 34 21.944   -15 18 18.63  .00999 1.0138 162.1 22.0  49d 177
2020 09 20 07  00 34 29.048   -15 25 22.59  .00997 1.0137 162.0 22.0  49d 177
2020 09 20 08  00 34 36.181   -15 32 27.74  .00996 1.0137 161.9 22.0  49d 177
2020 09 20 09  00 34 43.341   -15 39 34.06  .00994 1.0137 161.8 22.0  49d 177
2020 09 20 10  00 34 50.530   -15 46 41.57  .00992 1.0136 161.7 22.0  49d 177
2020 09 20 11  00 34 57.748   -15 53 50.27  .00991 1.0136 161.6 22.0  49d 177
2020 09 20 12  00 35 04.995   -16 01 00.15  .00989 1.0136 161.5 22.0  49d 177
2020 09 20 13  00 35 12.271   -16 08 11.21  .00988 1.0135 161.4 22.0  49d 177
2020 09 20 14  00 35 19.577   -16 15 23.47  .00986 1.0135 161.3 22.0  49d 177
2020 09 20 15  00 35 26.912   -16 22 36.91  .00985 1.0135 161.2 22.0  49d 176
2020 09 20 16  00 35 34.277   -16 29 51.55  .00984 1.0134 161.0 22.0  49d 176
2020 09 20 17  00 35 41.673   -16 37 07.37  .00982 1.0134 160.9 22.0  49d 176
2020 09 20 18  00 35 49.098   -16 44 24.39  .00981 1.0134 160.8 22.0  49d 176
2020 09 20 19  00 35 56.554   -16 51 42.59  .00979 1.0133 160.7 22.0  49d 176
2020 09 20 20  00 36 04.042   -16 59 02.00  .00978 1.0133 160.6 22.0  49d 176
2020 09 20 21  00 36 11.560   -17 06 22.59  .00976 1.0133 160.5 22.0  49d 176
2020 09 20 22  00 36 19.109   -17 13 44.38  .00975 1.0132 160.4 22.0  49d 176
2020 09 20 23  00 36 26.691   -17 21 07.36  .00973 1.0132 160.3 22.0  49d 176
2020 09 21 00  00 36 34.304   -17 28 31.54  .00972 1.0132 160.2 22.0  49d 176
2020 09 21 01  00 36 41.949   -17 35 56.92  .00970 1.0131 160.0 22.0  49d 176
2020 09 21 02  00 36 49.626   -17 43 23.49  .00969 1.0131 159.9 22.0  49d 176
2020 09 21 03  00 36 57.336   -17 50 51.26  .00967 1.0131 159.8 22.0  49d 175
2020 09 21 04  00 37 05.079   -17 58 20.23  .00966 1.0131 159.7 22.0  49d 175
2020 09 21 05  00 37 12.855   -18 05 50.40  .00965 1.0130 159.6 22.0  49d 175
2020 09 21 06  00 37 20.665   -18 13 21.77  .00963 1.0130 159.5 22.0  49d 175
2020 09 21 07  00 37 28.508   -18 20 54.33  .00962 1.0130 159.3 22.0  49d 175
2020 09 21 08  00 37 36.385   -18 28 28.10  .00960 1.0129 159.2 22.0  49d 175
2020 09 21 09  00 37 44.296   -18 36 03.07  .00959 1.0129 159.1 22.0  49d 175
2020 09 21 10  00 37 52.242   -18 43 39.24  .00957 1.0129 159.0 22.0  50d 175
2020 09 21 11  00 38 00.222   -18 51 16.61  .00956 1.0128 158.9 22.0  50d 175
2020 09 21 12  00 38 08.237   -18 58 55.19  .00955 1.0128 158.7 22.0  50d 174
2020 09 21 13  00 38 16.288   -19 06 34.96  .00953 1.0128 158.6 22.0  50d 174
2020 09 21 14  00 38 24.374   -19 14 15.94  .00952 1.0127 158.5 22.0  50d 174
2020 09 21 15  00 38 32.496   -19 21 58.13  .00950 1.0127 158.4 22.0  50d 174
2020 09 21 16  00 38 40.654   -19 29 41.51  .00949 1.0127 158.3 22.0  50d 174
2020 09 21 17  00 38 48.849   -19 37 26.10  .00948 1.0126 158.1 22.0  51d 174
2020 09 21 18  00 38 57.080   -19 45 11.90  .00946 1.0126 158.0 22.0  51d 174
2020 09 21 19  00 39 05.348   -19 52 58.89  .00945 1.0126 157.9 22.0  51d 174
2020 09 21 20  00 39 13.653   -20 00 47.10  .00944 1.0125 157.8 22.0  51d 173
2020 09 21 21  00 39 21.996   -20 08 36.50  .00942 1.0125 157.6 22.0  51d 173